Location: Altleiningen
(49.5078°N, 8.0741°E)
Time: 22:14:28
(UTC+00:00)

CZ-2C R/B - Pass Details

Date: 03 March 2021
Orbit: 784 x 871 km, 98.2° (Epoch: 12 April)

Event Time Altitude Azimuth Distance (km) Brightness Sun altitude
Rises 19:40:08 0° 8° (N) 3,441 6.0 -24.2°
Reaches altitude 10° 19:42:41 10° 1° (N) 2,490 5.3 -24.6°
Maximum altitude 19:47:42 37° 296° (WNW) 1,283 4.1 -25.4°
Drops below altitude 10° 19:52:35 10° 230° (SW) 2,423 5.4 -26.1°
Sets 19:55:02 0° 223° (SW) 3,337 6.1 -26.5°
